Location: Unspecified
(49.8670°N, 0.0000°E)
Time: 21:18:16
(UTC+00:00)

S-56A Canister/Altair - Pass Details

Date: 22 June 2019
Orbit: 632 x 2500 km, 38.9° (Epoch: 15 July)

Event Time Altitude Azimuth Distance (km) Brightness Sun altitude
Rises 15:34:26 0° 224° (SW) 5,194 12.4 41.2°
Reaches altitude 10° 15:38:57 10° 213° (SSW) 3,859 11.8 40.5°
Maximum altitude 15:46:13 25° 164° (SSE) 2,304 10.2 39.4°
Drops below altitude 10° 15:51:38 10° 111° (ESE) 2,796 10.1 38.5°
Sets 15:54:20 0° 97° (E) 3,525 10.5 38.1°
